Location: Arleux
(50.3632°N, 2.8721°E)
Time: 10:19:10
(UTC+00:00)

USA 238 - Pass Details

Date: 15 December 2019
Orbit: 1023 x 1189 km, 63.4° (Epoch: 20 January)

Event Time Altitude Azimuth Distance (km) Brightness Sun altitude
Rises 05:39:17 0° 211° (SSW) 3,768 6.4 -18.3°
Reaches altitude 10° 05:41:51 10° 209° (SSW) 2,830 5.8 -17.9°
Maximum altitude 05:48:29 70° 127° (SE) 1,121 4.0 -16.9°
Drops below altitude 10° 05:55:22 10° 46° (NE) 2,943 6.4 -15.9°
Sets 05:58:06 0° 44° (NE) 3,928 7.0 -15.5°
